Погода в Читеко

Индонезия     6°41′23″S   106°55′53″E
темп.,
°C
ветер,
м/с
пор.,
м/с
влажн.,
%
обл.,
%
осадки,
мм/ч
давл.,
гПа
погр.,
м
5 декабря, вс
вс501:00+19з1194100 4.4 101344
04:00+19сз1295100 0.3 101244
07:00+20сз2392100 0.3 1014230
10:00+23зсз1275100 0.4 1014759
13:00+22ссз348779 3.8 1012525
16:00+21сз2389100 0.7 1010376
19:00+20зсз1196100 1.9 101344
22:00+19з119389 0.8 101422
6 декабря, пн
пн601:00+19зюз129379 0.9 101224
04:00+19зюз119179 0.0 101125
07:00+20зсз128798 0.0 1013143
10:00+21зсз238689 1.0 1013403
13:00+23сз238075 3.6 1010784
16:00+21сз239296 4.1 1010290
19:00+20зсз2394100 7.3 1012107
22:00+19з119395 0.4 101245
7 декабря, вт
вт701:00+19сз1297100 2.5 1010123
04:00+19ссз2498100 7.8 1010299
07:00+19сз139691 12.3 1012145
10:00+23сз2481100 2.6 1012807
13:00+23сз348297 6.5 1010811
16:00+21сз2386100 3.8 1010456
19:00+19сз1197100 4.8 101215
22:00+19з119686 0.2 101412
8 декабря, ср
ср801:00+18зсз1195100 0.3 101228
04:00+18сз119479 0.0 101232
07:00+19ссз2491100 0.0 1014198
10:00+22сз2478100 0.1 1013790
13:00+24ссз337258 1.7 10101083
16:00+22ссз238479 3.9 1010488
19:00+20з119483 6.8 101325
22:00+19зсз1195100 0.1 101423
9 декабря, чт
чт901:00+18зсз1192100 0.1 101215
04:00+18зсз1189100 0.0 101211
07:00+20сз127992 0.0 1013137
10:00+24ссз227172 0.1 1013975
13:00+25ссз226894 1.6 10111099
16:00+23сз227795 3.4 1010645
19:00+20зсз1193100 5.3 101218
22:00+20зюз009376 0.1 101411